{"data":{"norad_id":42808,"intl_designator":"2017-039F","name":"IRIDIUM 117","alt_names":[],"object_type":"PAYLOAD","status":"ACTIVE","operator":null,"country":"US","launch_date":"2017-06-25","launch_site_code":"AFWTR","launch_vehicle":null,"mission":null,"orbit_class":"UNKNOWN","rcs_meters":null,"size_class":null,"mass_kg":null,"dimensions":null,"purposes":["comms"],"wikipedia_slug":null,"has_3d_model":false,"image_url":null,"decayed_at":null,"tle_current":{"epoch":"2026-09-20T03:33:06.939072Z","epoch_age_seconds":45969,"freshness":"FRESH","line1":"1 42808U 17039F   26263.14799698  .00000046  00000+0  93377-5 0  9997","line2":"2 42808  86.3973 313.9189 0002243  92.6780 267.4673 14.34217678483583","mean_motion":14.34217678,"eccentricity":0.0002243,"inclination_deg":86.3973,"raan_deg":313.9189,"arg_perigee_deg":92.678,"mean_anomaly_deg":267.4673,"bstar":9.3377e-6,"rev_number":48358,"period_min":100.40316906483,"perigee_km":776.06234691641,"apogee_km":779.27244076749,"semimajor_km":7155.804393842,"source":"CELESTRAK","updated_at":"2026-09-20T09:00:36.323050Z"}}}